User: anonymous   Login
Location: Fort Wayne
(41.1310°N, 85.1290°W)
Time: 21:21:54
(UTC-05:00)
Language:

Cosmos 2227 Rocket - Orbit

View from above orbital plane
View from above orbital plane
View from above satellite
View from above satellite

Ground track
Ground track

The orbit data is extracted from the following two-line orbital elements,

1 22285U 92093B   18052.42346710 -.00000229 +00000-0 -93488-4 0  9996
2 22285 071.0219 049.4418 0001879 129.2248 230.9042 14.15022024297799
Epoch (UTC): 21 February 2018 10:09:47
Eccentricity: 0.0001879
inclination: 71.0219°
perigee height: 841 km
apogee height: 843 km
right ascension of ascending node: 49.4418°
argument of perigee: 129.2248°
revolutions per day: 14.15022024
mean anomaly at epoch: 230.9042°
orbit number at epoch: 29779

The dashed part of the orbit path shows where the satellite is in the earth's shadow,  

DLR